Погода Фролово

Погода Фролово : погода сейчас, прогноз погоды и архив. Всё, что Вы хотите узнать о погоде Фролово!

Поиск расширенной информации на нашем сайте:

Другие новости

Новости СМИ2

Главная страница сайта

Новости сайта

03.07.2017

Напоминаем, что на нашем специализированном сайте Метеоцентр.Азия вы можете получить высокодетализированные автоматические прогнозы погоды по пунктам России, СНГ и мира в авиационном формате (включающие направление и скорость ветра, видимость, явления погоды, количество и форму облачности, нижнюю и верхнюю границу облачности).


Погода Фролово - сегодня

Время (UTC), дата Ветер
(°,м/с) 
Видим.   Явления Облачность Т
(°С)
Тd
(°С)
f(%) Тe
(°С)
Pmin
(гПа)
dP
(гПа)
Po
(мм)
O2
(г/м3)
Тmin Tmax R s Состояние
почвы
03 19.11.17 130 (ЮВ) 20000 м    10/0 средняя 
[Ac As]
+2 +1.7 98 +1  1020.2  -1.1  754  301  +0.7         
06 19.11.17 130 (ЮВ) 4000 м  дымка  10/10 300 м 
[St]
+2.7 +2.3 97 +1  1019.3  -0.8  753  300           
09 19.11.17 130 (ЮВ) 2000 м  дымка  10/10 300 м 
[St]
+4 +3.7 98 +2  1017.7  -1.6  752  298           
12 19.11.17 130 (ЮВ) 4000 м  дымка  10/10 300 м 
[St]
+5.3 +4.9 97 +4  1016  -1.5  751  296           
15 19.11.17 140 (ЮВ) 4000 м  дымка{морось}  10/10 300 м 
[St]
+5 +4.8 99 +3  1015.4  -0.7  750  296    +5.3  0.0     
18 19.11.17 160 (Ю) 20000 м  {морось}  9/9 600 м 
[Sc]
+7.3 +6.8 97 +6  1014.8  -0.4  750  293           
21 19.11.17 150 (ЮВ) 3{10}  10 км  слаб. морось  10/10 300 м 
[St]
+7 +6.7 98 +6  1015.1  0.3  750  294           
00 20.11.17 140 (ЮВ) 20000 м  {морось}  9/9 600 м 
[Sc]
+7.1 +6.7 97 +6  1014.2  -0.8  750  293           
03 20.11.17 140 (ЮВ) 20000 м    9/9 600 м 
[Sc]
+6.8 +6.5 98 +5  1013.7  -0.6  749  294  +5    0.0     
06 20.11.17 140 (ЮВ) 2000 м  слаб. морось  10/10 300 м 
[St]
+6.4 +6.3 99 +5  1014.3  0.6  750  294           
09 20.11.17 140 (ЮВ) 2000 м  дымка{морось}  10/10 300 м 
[St]
+7.1 +6.9 99 +6  1013.3  -0.9  749  293           
12 20.11.17 120 (ЮВ) 2000 м  дымка{морось}  10/10 300 м 
[St]
+7.5 +7.2 98 +7  1011.9  -1.3  748  292           
15 20.11.17 130 (ЮВ) 1000 м  дымка  10/10 300 м 
[St]
+6.9 +6.8 99 +6  1011.7  -0.2  748  293    +7.6  0.0     
18 20.11.17 130 (ЮВ) н/о    н/о 
+5.9 +5.3 96 +5  1010.7  -1.1  747  294           
21 20.11.17 140 (ЮВ) 20000 м    9/0 средняя 
[Ac und]
+3.7 +2.8 94 +2  1010.1  746  296           
00 21.11.17 100 (В) 20000 м    ясно 
+1.7 +1.1 96 1008.2  -1.9  745  298           
03 21.11.17 140 (ЮВ) 20000 м    ясно 
+0.4 -0.1 96 -1  1007.6  -0.7  745  300  +0.4         
06 21.11.17 100 (В) 10 км    10/0 средняя 
[Ac As]
+0.6 +0.4 99 -1  1007.2  -0.4  744  299  +0.2         
09 21.11.17 150 (ЮВ) 10 км    8/0 средняя 
[Ac As]
+4 +2.7 91 +4  1006.1  -0.9  744  295           
12 21.11.17 100 (В) 10 км    9/0 средняя 
[Ac As]
+4.5 +2.9 89 +3  1004.8  -1.3  743  294           
15 21.11.17 090 (В) 20000 м    10/0 средняя 
[Ac As]
+3.6 +2.6 93 +2  1003.9  -0.9  742  295    +4.7       
18 21.11.17 100 (В) 20000 м    ясно 
+2.5 +1.1 90 1002.2  -1.7  741  296           
21 21.11.17 100 (В) 20000 м    10/0 средняя 
[Ac As]
+2.1 +1.1 93 +1  1001.4  -0.9  740  296           
00 22.11.17 100 (В) 2000 м  дымка  10/10 300 м 
[St]
+3 +2.8 99 +2  1001.5  0.1  740  295           
03 22.11.17 110 (В) 1000 м  дымка  10/10 300 м 
[St]
+2.9 +2.7 99 +2  1000.9  -0.6  740  294           
Время (UTC), дата Ветер
(°,м/с) 
Видим.   Явления Облачность Т
(°С)
Тd
(°С)
f(%) Тe
(°С)
Pmin
(гПа)
dP
(гПа)
Po
(мм)
O2
(г/м3)
Тmin Tmax R s Состояние
почвы

Для получения пояснительной информации подведите курсор к названию столбца.

ПОГОДА Фролово - архив

Всё, что Вы хотите узнать о погоде Фролово - удобно и подробно!

Выберите нужную дату (начиная с 1 января 2015* года) и нажмите кнопку "Найти".
Будут отображены архивные сводки погоды по пункту Фролово, начиная с указанной даты.


Отображать данные в формате CSV (для использования в таблицах Excel)


Внимание! Наш архив погоды предназначен исключительно для личного некоммерческого использования в познавательных целях. Если Вам необходимы официальные справки о состоянии погоды (для производственных, юридических, коммерческих и т.п. целей), обращайтесь в органы Росгидромета.

*Примечание: данная дата относится к архиву по метеостанциям СССР (Россия, СНГ, Балтия).
Архив по метеостанциям Зарубежной Европы и Азии (кроме Китая) хранится 10 дней, по другим регионам земного шара (Китай, Африка, Америка, Австралия, Океания) - 1 день.

Фролово - район местоположения метеостанции


Название, широта, долгота, высота метеостанции:
Фролово 49.8°ш. 43.7°д. 119 м над ур. моря [Российская Федерация]

Дополнительная информация

В oтличие oт бoльшинства пoгoдных сайтoв мы публикуем пoдрoбную метеoинфoрмацию в детальнoм прoфессиoнальнoм фoрмате.

Характеристики температуры и влажнoсти вoздуха измеряются на высoте 2 м в тени вдали oт зданий и деревьев.
Скoрoсть ветра измеряется на высoте 10 м (на урoвне рoста челoвека скoрoсть ветра ниже в 1.5-2 раза). Если метеoстанция нахoдится в гoрoде или в лесу, тo скoрoсть ветра занижена на 2-4 м/с пo сравнению с oткрытым местoм. Скoрoсть ветра над акватoриями крупных рек и oзёр, а также на вершинах хoлмoв на 2-5 м/с выше, чем в oбычных услoвиях.
Атмoсфернoе давление в разных тoчках местнoсти мoжет значительнo oтличаться oт давления на метеoстанции, в зависимoсти oт услoвий рельефа (при пoдъёме на 10 м давление пoнижается примернo на 1 мм рт.ст.).